Weather History for Quincy, IL

Change the Weather History Date:

Tuesday, August 5, 2014

  Actual Average Record
Temperature  
Mean Temperature 76 °F 76 °F  
Max Temperature 83 °F 85 °F 108 °F (1918)
Min Temperature 68 °F 66 °F 52 °F (1948)
Degree Days  
Heating Degree Days 0 0  
Month to date heating degree days 0 0  
Since 1 June heating degree days 9 16  
Since 1 July heating degree days 5 0  
Cooling Degree Days 11 11  
Month to date cooling degree days 42 55  
Year to date cooling degree days 650 711  
Since 1 June cooling degree days 507 625  
Growing Degree Days 25 (Base 50)    
Moisture  
Dew Point 68 °F    
Average Humidity 78    
Maximum Humidity 93    
Minimum Humidity 63    
Precipitation  
Precipitation 0.24 in 0.12 in 2.82 in (1970)
Month to date precipitation 0.31 0.60  
Year to date precipitation 19.76 22.72  
Sea Level Pressure  
Sea Level Pressure 30.01 in    
Wind  
Wind Speed 6 mph (ENE)    
Max Wind Speed 12 mph    
Max Gust Speed 14 mph    
Visibility 8 miles    
Events Rain , Thunderstorm    
T = Trace of Precipitation, MM = Missing Value Source: NWS Daily Summary

Daily Weather History Graph

Daily Weather History Graph

Search for Another Location

Airport:

Trip Planner

Search our weather history database for the weather conditions in past years. The results will help you decide how hot, cold, wet, or windy it might be!

Date:

Astronomy

Aug. 05, 2014 Rise Set
Actual Time 6:07 AM CDT 8:13 PM CDT
Civil Twilight 5:37 AM CDT 8:43 PM CDT
Nautical Twilight 5:00 AM CDT 9:20 PM CDT
Astronomical Twilight 4:20 AM CDT 9:59 PM CDT
Moon 3:29 PM CDT (8/5) 12:55 AM CDT (8/5)
Length of Visible Light 15h 06m
Length of Day
14h 06m
Waxing Gibbous, 68% of the Moon is Illuminated
Aug 5
Waxing Gibbous
Aug 10
Full
Aug 17
Last Quarter
Aug 25
New
Sep 2
First Quarter

Hourly Weather History & Observations

Time (CDT) Temp. Heat Index Dew Point Humidity Pressure Visibility Wind Dir Wind Speed Gust Speed Precip Events Conditions
12:54 AM 73.0 °F - 68.0 °F 84% 29.98 in 10.0 mi Calm Calm - N/A   Overcast
1:26 AM 71.1 °F - 68.0 °F 90% 30.01 in 1.8 mi Variable 3.5 mph - 0.10 in Rain Heavy Rain
1:35 AM 72.0 °F - 66.0 °F 81% 29.99 in 2.0 mi SSE 9.2 mph - 0.14 in Rain , Thunderstorm Thunderstorms and Rain
1:43 AM 71.1 °F - 66.9 °F 87% 29.99 in 10.0 mi South 6.9 mph - 0.14 in Rain , Thunderstorm Light Thunderstorms and Rain
1:54 AM 71.1 °F - 66.9 °F 87% 29.98 in 10.0 mi SSW 10.4 mph - 0.14 in Thunderstorm Thunderstorm
2:10 AM 72.0 °F - 66.9 °F 84% 30.00 in 10.0 mi South 8.1 mph - N/A   Overcast
2:25 AM 71.1 °F - 66.9 °F 87% 30.00 in 1.8 mi ESE 5.8 mph - 0.09 in Rain Heavy Rain
2:32 AM 71.1 °F - 66.9 °F 87% 30.00 in 3.0 mi East 6.9 mph - 0.10 in Rain Light Rain
2:54 AM 71.1 °F - 66.9 °F 87% 29.98 in 10.0 mi South 3.5 mph - 0.10 in   Mostly Cloudy
3:54 AM 70.0 °F - 66.9 °F 90% 29.97 in 10.0 mi East 4.6 mph - N/A   Mostly Cloudy
4:54 AM 69.1 °F - 66.0 °F 90% 29.97 in 10.0 mi East 3.5 mph - N/A   Clear
5:54 AM 68.0 °F - 66.9 °F 96% 29.98 in 7.0 mi East 5.8 mph - N/A   Clear
6:54 AM 69.1 °F - 66.0 °F 90% 30.00 in 7.0 mi ESE 5.8 mph - N/A   Clear
7:54 AM 71.1 °F - 66.9 °F 87% 30.00 in 7.0 mi SE 5.8 mph - N/A   Clear
8:54 AM 73.9 °F - 68.0 °F 82% 30.01 in 8.0 mi South 5.8 mph - N/A   Clear
9:54 AM 77.0 °F - 69.1 °F 76% 30.03 in 9.0 mi Variable 3.5 mph - N/A   Clear
10:54 AM 80.1 °F 82.9 °F 69.1 °F 69% 30.04 in 10.0 mi North 8.1 mph - N/A   Clear
11:54 AM 81.0 °F 83.8 °F 68.0 °F 65% 30.04 in 10.0 mi NNE 6.9 mph - N/A   Scattered Clouds
12:54 PM 82.0 °F 85.5 °F 69.1 °F 65% 30.02 in 10.0 mi ENE 4.6 mph - N/A   Clear
1:54 PM 82.0 °F 84.9 °F 68.0 °F 62% 30.02 in 10.0 mi NE 6.9 mph - N/A   Scattered Clouds
2:54 PM 82.0 °F 85.5 °F 69.1 °F 65% 30.02 in 10.0 mi Variable 3.5 mph - N/A   Clear
3:54 PM 82.9 °F 85.8 °F 68.0 °F 60% 30.02 in 10.0 mi West 4.6 mph - N/A   Partly Cloudy
4:54 PM 82.0 °F 85.5 °F 69.1 °F 65% 30.02 in 10.0 mi NW 6.9 mph - N/A   Partly Cloudy
5:54 PM 82.0 °F 84.9 °F 68.0 °F 62% 30.02 in 10.0 mi NNW 6.9 mph - N/A   Clear
6:54 PM 80.1 °F 82.9 °F 69.1 °F 69% 30.02 in 10.0 mi NW 6.9 mph - N/A   Partly Cloudy
7:51 PM 78.8 °F - 69.8 °F 74% 30.04 in 10.0 mi North 5.8 mph - N/A   Mostly Cloudy
7:54 PM 78.1 °F - 70.0 °F 76% 30.02 in 10.0 mi North 4.6 mph - N/A   Mostly Cloudy
8:05 PM 77.0 °F - 70.0 °F 79% 30.04 in 9.0 mi North 6.9 mph - N/A   Scattered Clouds
8:54 PM 73.0 °F - 69.1 °F 87% 30.02 in 6.0 mi NNE 4.6 mph - N/A   Clear
9:54 PM 71.1 °F - 68.0 °F 90% 30.03 in 6.0 mi NE 5.8 mph - N/A   Clear
10:54 PM 69.1 °F - 66.9 °F 93% 30.03 in 4.0 mi NE 5.8 mph - N/A   Clear
11:54 PM 69.1 °F - 66.9 °F 93% 30.04 in 3.0 mi NE 5.8 mph - N/A   Clear